Location: Oshawa
(43.9000°N, 78.8670°W)
Time: 04:00:37
(UTC-04:00)

Courier 1B - All Passes

Search period start: 22 October 2014 00:00
Search period end: 01 November 2014 00:00
Orbit: 963 x 1209 km, 28.3° (Epoch: 20 October)

Date Brightness Start Highest point End Pass type
(mag) Time Alt. Az. Time Alt. Az. Time Alt. Az.
22 Oct - 11:20:24 10° SSW 11:25:03 17° SSE 11:29:43 10° SE daylight
22 Oct - 13:12:12 10° SW 13:18:12 24° S 13:24:11 10° SE daylight
22 Oct - 15:05:50 10° WSW 15:11:26 22° SSW 15:16:55 10° SE daylight
22 Oct - 17:02:29 10° SW 17:04:23 11° SSW 17:06:17 10° S daylight
23 Oct - 10:27:51 10° S 10:31:29 14° SSE 10:35:09 10° SE daylight
23 Oct - 12:18:43 10° SW 12:24:34 23° S 12:30:25 10° ESE daylight
23 Oct - 14:11:55 10° WSW 14:17:49 24° S 14:23:38 10° SE daylight
23 Oct - 16:07:05 10° SW 16:10:53 14° SSW 16:14:38 10° S daylight
24 Oct - 09:36:25 10° SSE 09:37:58 11° SSE 09:39:32 10° SE daylight
24 Oct - 11:25:26 10° SSW 11:30:56 21° SSE 11:36:31 10° ESE daylight
24 Oct - 13:18:09 10° SW 13:24:10 25° S 13:30:11 10° SE daylight
24 Oct - 15:12:33 10° WSW 15:17:20 17° SSW 15:22:03 10° SSE daylight
25 Oct - 10:32:21 10° SSW 10:37:20 19° SSE 10:42:25 10° ESE daylight
25 Oct - 12:24:31 10° SW 12:30:31 25° S 12:36:35 10° SE daylight
25 Oct - 14:18:23 10° WSW 14:23:45 20° SSW 14:29:04 10° SSE daylight
26 Oct - 09:39:35 10° SSW 09:43:47 16° SSE 09:48:04 10° SE daylight
26 Oct - 11:31:01 10° SW 11:36:53 24° S 11:42:50 10° SE daylight
26 Oct - 13:24:26 10° WSW 13:30:07 22° S 13:35:50 10° SE daylight
26 Oct - 15:20:19 10° SW 15:23:10 12° SSW 15:26:00 10° S daylight
27 Oct - 08:47:23 10° S 08:50:17 13° SSE 08:53:14 10° SE daylight
27 Oct - 10:37:42 10° SW 10:43:16 23° S 10:48:58 10° ESE daylight
27 Oct - 12:30:38 10° SW 12:36:29 24° S 12:42:25 10° SE daylight
27 Oct - 14:25:26 10° SW 14:29:37 15° SSW 14:33:48 10° SSE daylight
28 Oct - 09:44:33 10° SSW 09:49:41 20° SSE 09:54:57 10° ESE daylight
28 Oct - 11:37:00 10° SW 11:42:51 24° S 11:48:50 10° SE daylight
28 Oct - 13:31:08 10° WSW 13:36:02 18° SSW 13:40:59 10° SSE daylight
29 Oct - 08:51:40 10° SSW 08:56:08 17° SSE 09:00:45 10° SE daylight
29 Oct - 10:43:30 10° SW 10:49:14 24° S 10:55:08 10° SE daylight
29 Oct - 12:37:07 10° WSW 12:42:26 20° SSW 12:47:51 10° SSE daylight
30 Oct - 07:59:09 10° S 08:02:39 14° SSE 08:06:14 10° SE daylight
30 Oct - 09:50:09 10° SW 09:55:38 23° S 10:01:19 10° SE daylight
30 Oct - 11:43:18 10° SW 11:48:49 22° S 11:54:29 10° SE daylight
30 Oct - 13:38:45 10° SW 13:41:54 13° SSW 13:45:05 10° S daylight
31 Oct - 07:07:35 10° SSE 07:09:12 11° SSE 07:10:50 10° SE visible
31 Oct - 08:56:57 10° SW 09:02:04 21° S 09:07:22 10° SE daylight
31 Oct - 10:49:39 10° SW 10:55:13 23° S 11:00:58 10° SE daylight
31 Oct - 12:44:09 10° SW 12:48:21 16° SSW 12:52:36 10° SSE daylight
